SL-14 DEB, 45287

Orbit data source: Space-Track

SL-14 DEB, 45287 is space debris in LEO originally from a launch on Thu, 15 Aug 1991 UTC launched from the Plesetsk Missile And Space Complex (PKMTR). Debris objects in space refer to the collection of defunct objects orbiting the Earth. Examples of debris include non-operational satellites, rocket bodies, and fragments generated from explosions, collisions, or faulty payload assembly.

Loading next visibility...
Identifier
45287, 1991-056Z
Orbit
LEO
Country
Flag of CISCIS
Related business
Manufacturer
Unknown
Mission
Spacecraft
Bus & Motor
Unknown
Mass
Unknown
Launch date (UTC)
1991-08-15 (35 years ago)
Launch vehicle
Unknown
Launch site
Plesetsk Missile And Space Complex (PKMTR)
Object type
Payload
Rocket body
Debris
Shape & HBR
Unknown shape, 0.1 m
Radar Cross Section
Medium (>0.1 m² and <1 m²)

Expand to show TLE details & history
Last TLE update: 6 hours ago

TLE from 6 hours ago
0 SL-14 DEB
1 45287U 91056Z   26177.76061159  .00000433  00000-0  84857-3 0  9990
2 45287  82.5699  93.5385 0068866 253.0015 106.3562 13.33025771308804
Epoch: 2026-06-26T18:15Z
TLE epoch observation values (Epoch: 2026-06-26T18:15:16.841Z)
Latitude
-0.00002°
Longitude
-95.16616°
Altitude
1,153.104 km
Speed
7.269 km/s
True Right ascension
06h 14m 09s
True Declination
0° 00' 00"
Sunlit
Object was in daylight at epoch
Visualization orbit readout
Latitude
Unknown
Longitude
Unknown
Altitude
Unknown
Speed
Unknown
Apparent Right ascension
Unknown
Apparent Declination
Unknown
Sunlit
N/A
Visualization observer readout
Local Sidereal Time
11:43:42
Azimuth
Unknown
Elevation
Unknown
Doppler factor
Unknown
Orbital elements
Apogee altitude
1,184.317 km
Perigee altitude
1,080.87 km
Semi-major axis
7,510.73 km
Eccentricity
0.00689
Inclination
82.5699°
RAAN
93.5385°
Arg. of periapsis
253.0015°
True anomaly
107.11156°
Mean anomaly
106.3562°
Eccentric anomaly
106.73406°
Mean motion
3.33442 °/min
Orbital period
107.96 mins
BSTAR
0.00084857
Loading maneuver chart data...
Computing Atmospheric mass density...
Loading historical data...
Loading historical data...
Loading historical data...
Loading historical data...
Loading historical data...
Loading historical data...
Loading historical data...

Documentation

Showing up to 5 results
|